星链-36771(STARLINK-36771)

导读

STARLINK-36771是美国SpaceX公司星链(Starlink)星座的成员卫星,于2026年2月22日发射升空。星链计划旨在构建近地轨道巨型卫星星座,为全球提供高速宽带互联网接入服务。该卫星部署于近地轨道,将和其他星链卫星协同,补充完善星座网络覆盖,提升全球偏远地区等场景的网络连接能力,推动全球互联互通。

Basic Information
目录编号:
67928
目录名称:
STARLINK-36771
国际标识:
2026-036AA
轨道中心:
EARTH
卫星名称:
星链-36771
卫星全名:
星链-36771(STARLINK-36771)
卫星状态:
在轨 (已飞行194 天)
发射日期:
2026-02-22 UTC
国别 :
美国 (US)
星等 :
--
Orbit Information
数据来源 国际轨道数据
星历时间: 2026-09-04T12:48:57+0800
6小时前
查看轨道信息
半长轴: 6861.13km
偏心率: 0.0001232
轨道倾角: 43.001°
近地点辐角 246.137°
升交点赤经 317.075°
平近点角 113.935°
近地点: 482.147km
远地点: 483.839km
周期: 94.266分钟
每日圈数: 15.275988
Detailed Information
固有亮度:
5
最大亮度:
2.5
卫星平台:
Starlink V1.0
覆盖范围:
全球
运营商:
太空探索技术公司
运营商所在国:
美国
制造商(研发单位):
太空探索技术公司
制造商所在国:
美国
使用方式:
暂无
Satellite Introduction
Starlink 计划是 SpaceX 推出的全球卫星互联网项目,通过发射低轨道卫星,为全球尤其是偏远地区提供高速、低延迟的互联网服务。自 2019 年起,Starlink 已部署数千颗卫星,旨在缩小全球数字鸿沟,推动互联网普及。该项目还为军事、航空等行业提供通信支持,带来广泛经济效益。
2D Orbit Map
3D Orbit Map
Orbit Altitude Analysis Chart
Orbit Inclination Analysis Chart
Orbit Comprehensive Analysis Chart
View Comprehensive Chart
Conjunction Data List
Event ID Objects TCA Miss Dist (km) Collision Risk Probability Collision Risk Index (CRI) Action
CDM_260906-200805-560406-792821
2026-09-06T
20:08:38+0000
0.647 km
远距离
6.943984E-5 中风险 0.72
CDM_260905-021705-933406-792821
2026-09-05T
02:17:39+0000
0.628 km
远距离
5.800926E-5 中风险 0.7
CDM_260905-004305-933406-792821
2026-09-05T
00:43:30+0000
0.887 km
远距离
1.93304E-5 中风险 0.61
CDM_260906-183405-560406-792821
2026-09-06T
18:34:28+0000
1.385 km
极远距离
5.558562E-6 低风险 0.5
CDM_260903-120205-950006-792821
2026-09-03T
12:02:06+0000
1.347 km
极远距离
4.435035E-6 低风险 0.48
CDM_260905-140805-930306-792821
2026-09-05T
14:08:15+0000
1.165 km
极远距离
3.322203E-6 低风险 0.45
CDM_260905-122905-933406-792821
2026-09-05T
12:29:38+0000
1.782 km
极远距离
1.986743E-6 低风险 0.41
CDM_260906-170005-560406-792821
2026-09-06T
17:00:19+0000
2.235 km
极远距离
1.469455E-6 低风险 0.38
CDM_260905-035105-933406-792821
2026-09-05T
03:51:48+0000
2.124 km
极远距离
1.28996E-6 低风险 0.37
CDM_260904-230905-933406-792821
2026-09-04T
23:09:20+0000
2.344 km
极远距离
1.057882E-6 低风险 0.35